Location: Bullenkuhlen
(53.7689°N, 9.7495°E)
Time: 02:46:08
(UTC+00:00)

NOSS 2-1 (D) - Pass Details

Date: 09 April 2020
Orbit: 450 x 1753 km, 63.3° (Epoch: 03 June)

Event Time Altitude Azimuth Distance (km) Brightness Sun altitude
Rises 22:34:37 0° 311° (NW) 2,934 7.8 -27.4°
Reaches altitude 10° 22:36:36 10° 309° (NW) 2,154 6.9 -27.5°
Enters shadow 22:41:10 71° 254° (WSW) 898 4.2 -27.6°
